When you browse on this site, cookies collect data to enhance your experience and personalize the content and advertising you see.
Visit our Privacy Policy to learn more. By continuing to use the site, you agree to this use of cookies and data.
  • In Schweiz
  • Länderverzeichnis
  • Für 7 Tage
  • Wassertemperatur
  • Wetterkarte
  • Widgets
  • user-avatar
    Anmelden

    Stündliche Wetter Уэйкфилд

    Heute, 24 Januar, Freitag

    Zeit Temperatur Niederschläge Wind Luftdruck Luftfeuchtigkeit
    00:00 +5°C° 0 mm 3 m/S 762 mmHg 93%
    01:00 +5°C° 0 mm 3 m/S 762 mmHg 93%
    02:00 +5°C° 0 mm 3 m/S 761 mmHg 93%
    03:00 +5°C° 0 mm 3 m/S 761 mmHg 93%
    04:00 +5°C° 0 mm 3 m/S 760 mmHg 93%
    05:00 +5°C° 0 mm 3 m/S 760 mmHg 92%
    06:00 +5°C° 0 mm 3 m/S 760 mmHg 92%
    07:00 +5°C° 0 mm 3 m/S 760 mmHg 92%
    08:00 +5°C° 0 mm 3 m/S 760 mmHg 92%
    09:00 +5°C° 0 mm 4 m/S 760 mmHg 92%
    10:00 +5°C° 0 mm 4 m/S 759 mmHg 89%
    11:00 +6°C° 0 mm 4 m/S 759 mmHg 85%
    12:00 +7°C° 0 mm 4 m/S 759 mmHg 82%
    13:00 +8°C° 0 mm 3 m/S 759 mmHg 82%
    14:00 +8°C° 0 mm 3 m/S 758 mmHg 83%
    15:00 +8°C° 0 mm 2 m/S 758 mmHg 83%
    16:00 +8°C° 0 mm 2 m/S 758 mmHg 85%
    17:00 +7°C° 0 mm 2 m/S 758 mmHg 88%
    18:00 +6°C° 0 mm 2 m/S 758 mmHg 90%
    19:00 +6°C° 0 mm 2 m/S 758 mmHg 91%
    20:00 +6°C° 0 mm 2 m/S 758 mmHg 92%
    21:00 +7°C° 0 mm 1 m/S 758 mmHg 92%
    22:00 +6°C° 0 mm 1 m/S 758 mmHg 93%
    23:00 +5°C° 0 mm 2 m/S 758 mmHg 93%

    Morgen, 25 Januar, Samstag

    Zeit Temperatur Niederschläge Wind Luftdruck Luftfeuchtigkeit
    00:00 +5°C° 0 mm 2 m/S 757 mmHg 93%
    01:00 +5°C° 0 mm 2 m/S 757 mmHg 93%
    02:00 +6°C° 0 mm 1 m/S 757 mmHg 93%
    03:00 +6°C° 0 mm 1 m/S 756 mmHg 94%
    04:00 +5°C° 0 mm 2 m/S 756 mmHg 92%
    05:00 +6°C° 0 mm 2 m/S 756 mmHg 91%
    06:00 +6°C° 0 mm 2 m/S 755 mmHg 90%
    07:00 +6°C° 0 mm 2 m/S 755 mmHg 89%
    08:00 +5°C° 0 mm 2 m/S 755 mmHg 88%
    09:00 +5°C° 0 mm 2 m/S 755 mmHg 88%
    10:00 +5°C° 0 mm 3 m/S 755 mmHg 84%
    11:00 +7°C° 0 mm 3 m/S 755 mmHg 80%
    12:00 +8°C° 0 mm 3 m/S 755 mmHg 75%
    13:00 +8°C° 0 mm 3 m/S 754 mmHg 75%
    14:00 +8°C° 0 mm 3 m/S 754 mmHg 74%
    15:00 +8°C° 0 mm 3 m/S 753 mmHg 73%
    16:00 +7°C° 0 mm 3 m/S 753 mmHg 78%
    17:00 +5°C° 0 mm 3 m/S 753 mmHg 83%
    18:00 +4°C° 0 mm 3 m/S 752 mmHg 89%
    19:00 +4°C° 0 mm 3 m/S 752 mmHg 90%
    20:00 +4°C° 0 mm 3 m/S 752 mmHg 91%
    21:00 +4°C° 0 mm 3 m/S 752 mmHg 92%
    22:00 +5°C° 0 mm 3 m/S 752 mmHg 92%
    23:00 +5°C° 0 mm 4 m/S 751 mmHg 91%

    übermorgen, 26 Januar, Sonntag

    Zeit Temperatur Niederschläge Wind Luftdruck Luftfeuchtigkeit
    00:00 +6°C° 0 mm 4 m/S 751 mmHg 90%
    01:00 +5°C° 0 mm 4 m/S 750 mmHg 89%
    02:00 +5°C° 0 mm 4 m/S 750 mmHg 87%
    03:00 +5°C° 0 mm 4 m/S 750 mmHg 86%
    04:00 +5°C° 0 mm 4 m/S 749 mmHg 86%
    05:00 +4°C° 0 mm 4 m/S 749 mmHg 85%
    06:00 +4°C° 0 mm 4 m/S 748 mmHg 84%
    07:00 +4°C° 0 mm 4 m/S 748 mmHg 85%
    08:00 +3°C° 0 mm 5 m/S 748 mmHg 85%
    09:00 +3°C° 0 mm 5 m/S 748 mmHg 86%
    10:00 +5°C° 0.2 mm 5 m/S 747 mmHg 84%
    11:00 +5°C° 0.2 mm 6 m/S 747 mmHg 81%
    12:00 +5°C° 0.2 mm 7 m/S 746 mmHg 79%
    13:00 +5°C° 0.8 mm 6 m/S 746 mmHg 82%
    14:00 +6°C° 0.8 mm 5 m/S 745 mmHg 85%
    15:00 +7°C° 0.8 mm 5 m/S 745 mmHg 88%
    16:00 +6°C° 0.9 mm 4 m/S 745 mmHg 89%
    17:00 +6°C° 0.9 mm 4 m/S 744 mmHg 90%
    18:00 +7°C° 0.9 mm 3 m/S 744 mmHg 90%
    19:00 +7°C° 0 mm 3 m/S 744 mmHg 91%
    20:00 +7°C° 0 mm 3 m/S 744 mmHg 91%
    21:00 +5°C° 0 mm 3 m/S 743 mmHg 91%
    22:00 +5°C° 0 mm 3 m/S 743 mmHg 91%
    23:00 +4°C° 0 mm 3 m/S 743 mmHg 90%

    27 Januar, Montag

    Zeit Temperatur Niederschläge Wind Luftdruck Luftfeuchtigkeit
    00:00 +4°C° 0 mm 3 m/S 743 mmHg 90%
    01:00 +4°C° 0 mm 3 m/S 742 mmHg 90%
    02:00 +3°C° 0 mm 4 m/S 742 mmHg 90%
    03:00 +3°C° 0 mm 4 m/S 742 mmHg 89%
    04:00 +3°C° 0.1 mm 4 m/S 742 mmHg 87%
    05:00 +3°C° 0.1 mm 4 m/S 741 mmHg 84%
    06:00 +3°C° 0.1 mm 4 m/S 741 mmHg 82%
    07:00 +2°C° 0 mm 5 m/S 741 mmHg 83%
    08:00 +2°C° 0 mm 5 m/S 741 mmHg 83%
    09:00 +3°C° 0 mm 5 m/S 741 mmHg 84%
    10:00 +3°C° 0 mm 5 m/S 741 mmHg 79%
    11:00 +5°C° 0 mm 5 m/S 741 mmHg 74%
    12:00 +5°C° 0 mm 5 m/S 741 mmHg 69%
    13:00 +5°C° 0.1 mm 5 m/S 740 mmHg 73%
    14:00 +5°C° 0.1 mm 4 m/S 739 mmHg 76%
    15:00 +4°C° 0.1 mm 4 m/S 739 mmHg 79%
    16:00 +4°C° 0.1 mm 3 m/S 738 mmHg 81%
    17:00 +4°C° 0.1 mm 3 m/S 737 mmHg 84%
    18:00 +3°C° 0.1 mm 3 m/S 737 mmHg 86%
    19:00 +3°C° 0 mm 3 m/S 736 mmHg 86%
    20:00 +3°C° 0 mm 3 m/S 735 mmHg 86%
    21:00 +3°C° 0 mm 4 m/S 734 mmHg 86%
    22:00 +2°C° 0.1 mm 5 m/S 734 mmHg 86%
    23:00 +2°C° 0.1 mm 5 m/S 733 mmHg 86%

    28 Januar, Dienstag

    Zeit Temperatur Niederschläge Wind Luftdruck Luftfeuchtigkeit
    00:00 +2°C° 0.1 mm 6 m/S 733 mmHg 86%
    01:00 +2°C° 0 mm 6 m/S 733 mmHg 83%
    02:00 +1°C° 0 mm 5 m/S 733 mmHg 79%
    03:00 +1°C° 0 mm 5 m/S 733 mmHg 76%
    04:00 0°C° 0 mm 5 m/S 733 mmHg 76%
    05:00 0°C° 0 mm 5 m/S 733 mmHg 76%
    06:00 0°C° 0 mm 4 m/S 734 mmHg 76%
    07:00 0°C° 0 mm 5 m/S 734 mmHg 74%
    08:00 0°C° 0 mm 5 m/S 734 mmHg 73%
    09:00 0°C° 0 mm 5 m/S 734 mmHg 72%
    10:00 +1°C° 0 mm 6 m/S 734 mmHg 71%
    11:00 +2°C° 0 mm 6 m/S 733 mmHg 69%
    12:00 +3°C° 0 mm 7 m/S 733 mmHg 68%
    13:00 +3°C° 0 mm 7 m/S 733 mmHg 68%
    14:00 +3°C° 0 mm 6 m/S 733 mmHg 69%
    15:00 +3°C° 0 mm 6 m/S 733 mmHg 69%
    16:00 +2°C° 0 mm 6 m/S 733 mmHg 71%
    17:00 +1°C° 0 mm 5 m/S 733 mmHg 74%
    18:00 +1°C° 0 mm 5 m/S 733 mmHg 76%
    19:00 +1°C° 0 mm 5 m/S 733 mmHg 76%
    20:00 +1°C° 0 mm 5 m/S 734 mmHg 76%
    21:00 +1°C° 0 mm 6 m/S 734 mmHg 76%
    22:00 +1°C° 0 mm 6 m/S 735 mmHg 75%
    23:00 +1°C° 0 mm 6 m/S 735 mmHg 74%

    29 Januar, Mittwoch

    Zeit Temperatur Niederschläge Wind Luftdruck Luftfeuchtigkeit
    00:00 0°C° 0 mm 7 m/S 736 mmHg 73%
    01:00 0°C° 0 mm 7 m/S 736 mmHg 75%
    02:00 0°C° 0 mm 8 m/S 737 mmHg 78%
    03:00 -1°C° 0 mm 8 m/S 737 mmHg 81%
    04:00 0°C° 0 mm 8 m/S 737 mmHg 77%
    05:00 0°C° 0 mm 8 m/S 737 mmHg 74%
    06:00 0°C° 0 mm 8 m/S 737 mmHg 71%
    07:00 0°C° 0 mm 8 m/S 738 mmHg 71%
    08:00 0°C° 0 mm 8 m/S 738 mmHg 72%
    09:00 0°C° 0 mm 7 m/S 739 mmHg 72%
    10:00 0°C° 0 mm 8 m/S 739 mmHg 71%
    11:00 +1°C° 0 mm 8 m/S 739 mmHg 71%
    12:00 +1°C° 0 mm 9 m/S 739 mmHg 70%
    13:00 +1°C° 0.4 mm 8 m/S 740 mmHg 72%
    14:00 +1°C° 0.4 mm 8 m/S 740 mmHg 73%
    15:00 +1°C° 0.4 mm 8 m/S 740 mmHg 75%
    16:00 +2°C° 0 mm 7 m/S 740 mmHg 74%
    17:00 +2°C° 0 mm 7 m/S 741 mmHg 73%
    18:00 +2°C° 0 mm 7 m/S 741 mmHg 72%
    19:00 +2°C° 0 mm 7 m/S 742 mmHg 73%
    20:00 +2°C° 0 mm 7 m/S 742 mmHg 73%
    21:00 +2°C° 0 mm 6 m/S 743 mmHg 74%
    22:00 +1°C° 0 mm 6 m/S 743 mmHg 75%
    23:00 +1°C° 0 mm 6 m/S 744 mmHg 77%
    Mehr zeigen